When you browse on this site, cookies collect data to enhance your experience and personalize the content and advertising you see.
Visit our Privacy Policy to learn more. By continuing to use the site, you agree to this use of cookies and data.
  • Em Portugal
  • Lista de países
  • Para 7 dias
  • Temperatura da água
  • Mapa do tempo
  • Widgets de tempo
  • user-avatar
    Iniciar Sessão

    Previsão horária em Shishkeevo

    Hoje, 23 Setembro, Segunda-feira

    Tempo Temperatura Precipitação Vento Pressão Humidade
    00:00 -1°C° 0.5 mm 8 m/s 727 mmHg 96%
    01:00 -1°C° 0.2 mm 8 m/s 728 mmHg 95%
    02:00 -1°C° 0.2 mm 8 m/s 729 mmHg 94%
    03:00 -1°C° 0 mm 6 m/s 730 mmHg 94%
    04:00 -1°C° 0.1 mm 6 m/s 731 mmHg 93%
    05:00 -1°C° 0.1 mm 6 m/s 731 mmHg 92%
    06:00 +1°C° 0.1 mm 6 m/s 732 mmHg 91%
    07:00 0°C° 0.3 mm 7 m/s 733 mmHg 89%
    08:00 0°C° 0.3 mm 7 m/s 734 mmHg 86%
    09:00 0°C° 0 mm 7 m/s 735 mmHg 82%
    10:00 0°C° 0 mm 7 m/s 736 mmHg 80%
    11:00 +2°C° 0 mm 7 m/s 736 mmHg 78%
    12:00 +2°C° 0 mm 7 m/s 736 mmHg 76%
    13:00 +2°C° 0.1 mm 7 m/s 737 mmHg 76%
    14:00 +2°C° 0.1 mm 7 m/s 737 mmHg 77%
    15:00 +2°C° 0.1 mm 7 m/s 738 mmHg 78%
    16:00 +2°C° 0.2 mm 7 m/s 738 mmHg 83%
    17:00 0°C° 0.2 mm 7 m/s 738 mmHg 88%
    18:00 0°C° 0.2 mm 7 m/s 738 mmHg 93%
    19:00 0°C° 0 mm 7 m/s 738 mmHg 91%
    20:00 +1°C° 0 mm 6 m/s 739 mmHg 89%
    21:00 +1°C° 0 mm 6 m/s 739 mmHg 87%
    22:00 +1°C° 0 mm 6 m/s 739 mmHg 88%
    23:00 -1°C° 0 mm 6 m/s 739 mmHg 88%

    Amanhã, 24 Setembro, Terça-feira

    Tempo Temperatura Precipitação Vento Pressão Humidade
    00:00 -1°C° 0 mm 6 m/s 739 mmHg 89%
    01:00 -1°C° 0 mm 6 m/s 740 mmHg 89%
    02:00 0°C° 0 mm 5 m/s 741 mmHg 90%
    03:00 0°C° 0 mm 5 m/s 741 mmHg 90%
    04:00 0°C° 0 mm 4 m/s 741 mmHg 91%
    05:00 -1°C° 0 mm 4 m/s 741 mmHg 91%
    06:00 -1°C° 0 mm 4 m/s 742 mmHg 92%
    07:00 0°C° 0 mm 4 m/s 742 mmHg 90%
    08:00 0°C° 0 mm 4 m/s 742 mmHg 88%
    09:00 +1°C° 0 mm 4 m/s 743 mmHg 85%
    10:00 +3°C° 0 mm 4 m/s 742 mmHg 81%
    11:00 +3°C° 0 mm 4 m/s 742 mmHg 78%
    12:00 +4°C° 0 mm 4 m/s 742 mmHg 74%
    13:00 +5°C° 0.1 mm 4 m/s 742 mmHg 70%
    14:00 +5°C° 0.1 mm 4 m/s 742 mmHg 67%
    15:00 +6°C° 0.1 mm 4 m/s 742 mmHg 63%
    16:00 +5°C° 0.3 mm 3 m/s 742 mmHg 69%
    17:00 +4°C° 0.3 mm 3 m/s 742 mmHg 75%
    18:00 +3°C° 0.3 mm 3 m/s 742 mmHg 80%
    19:00 +4°C° 0 mm 2 m/s 742 mmHg 83%
    20:00 +3°C° 0 mm 2 m/s 743 mmHg 86%
    21:00 +2°C° 0 mm 2 m/s 743 mmHg 89%
    22:00 +2°C° 0 mm 2 m/s 743 mmHg 91%
    23:00 +2°C° 0 mm 2 m/s 743 mmHg 92%

    Depois de amanhã, 25 Setembro, Quarta-feira

    Tempo Temperatura Precipitação Vento Pressão Humidade
    00:00 +1°C° 0 mm 2 m/s 743 mmHg 94%
    01:00 +1°C° 0 mm 2 m/s 743 mmHg 94%
    02:00 -1°C° 0 mm 2 m/s 743 mmHg 94%
    03:00 -1°C° 0 mm 2 m/s 743 mmHg 95%
    04:00 -1°C° 0 mm 2 m/s 743 mmHg 94%
    05:00 -2°C° 0 mm 2 m/s 744 mmHg 94%
    06:00 -2°C° 0 mm 2 m/s 744 mmHg 94%
    07:00 -1°C° 0 mm 2 m/s 744 mmHg 88%
    08:00 +1°C° 0 mm 3 m/s 744 mmHg 83%
    09:00 +2°C° 0 mm 3 m/s 744 mmHg 77%
    10:00 +3°C° 0 mm 3 m/s 745 mmHg 73%
    11:00 +4°C° 0 mm 3 m/s 745 mmHg 70%
    12:00 +5°C° 0 mm 3 m/s 745 mmHg 66%
    13:00 +5°C° 0 mm 3 m/s 745 mmHg 66%
    14:00 +4°C° 0 mm 3 m/s 745 mmHg 65%
    15:00 +4°C° 0 mm 3 m/s 745 mmHg 65%
    16:00 +4°C° 0 mm 3 m/s 744 mmHg 68%
    17:00 +4°C° 0 mm 2 m/s 744 mmHg 72%
    18:00 +3°C° 0 mm 2 m/s 744 mmHg 75%
    19:00 +3°C° 0 mm 2 m/s 744 mmHg 77%
    20:00 +3°C° 0 mm 2 m/s 745 mmHg 79%
    21:00 +2°C° 0 mm 2 m/s 745 mmHg 80%
    22:00 +2°C° 0 mm 2 m/s 745 mmHg 81%
    23:00 +2°C° 0 mm 2 m/s 744 mmHg 83%

    26 Setembro, Quinta-feira

    Tempo Temperatura Precipitação Vento Pressão Humidade
    00:00 +2°C° 0 mm 2 m/s 744 mmHg 84%
    01:00 +2°C° 0 mm 2 m/s 744 mmHg 85%
    02:00 +1°C° 0 mm 2 m/s 744 mmHg 86%
    03:00 +1°C° 0 mm 2 m/s 744 mmHg 88%
    04:00 +1°C° 0 mm 2 m/s 744 mmHg 89%
    05:00 +1°C° 0 mm 2 m/s 744 mmHg 90%
    06:00 -1°C° 0 mm 2 m/s 745 mmHg 90%
    07:00 +2°C° 0 mm 2 m/s 745 mmHg 84%
    08:00 +3°C° 0 mm 2 m/s 745 mmHg 78%
    09:00 +4°C° 0 mm 2 m/s 745 mmHg 72%
    10:00 +4°C° 0 mm 3 m/s 745 mmHg 67%
    11:00 +5°C° 0 mm 3 m/s 745 mmHg 61%
    12:00 +7°C° 0 mm 3 m/s 745 mmHg 55%
    13:00 +6°C° 0 mm 4 m/s 745 mmHg 56%
    14:00 +6°C° 0 mm 4 m/s 745 mmHg 57%
    15:00 +6°C° 0 mm 4 m/s 744 mmHg 59%
    16:00 +5°C° 0 mm 3 m/s 744 mmHg 64%
    17:00 +5°C° 0 mm 2 m/s 744 mmHg 70%
    18:00 +4°C° 0 mm 2 m/s 744 mmHg 75%
    19:00 +4°C° 0 mm 2 m/s 744 mmHg 79%
    20:00 +3°C° 0 mm 2 m/s 744 mmHg 82%
    21:00 +3°C° 0 mm 2 m/s 744 mmHg 85%
    22:00 +2°C° 0 mm 2 m/s 744 mmHg 85%
    23:00 +2°C° 0 mm 2 m/s 744 mmHg 85%

    27 Setembro, Sexta-feira

    Tempo Temperatura Precipitação Vento Pressão Humidade
    00:00 +2°C° 0 mm 2 m/s 744 mmHg 85%
    01:00 +2°C° 0 mm 2 m/s 744 mmHg 86%
    02:00 +1°C° 0 mm 3 m/s 744 mmHg 87%
    03:00 +1°C° 0 mm 3 m/s 744 mmHg 88%
    04:00 +1°C° 0 mm 3 m/s 744 mmHg 88%
    05:00 0°C° 0 mm 3 m/s 744 mmHg 88%
    06:00 0°C° 0 mm 3 m/s 744 mmHg 89%
    07:00 0°C° 0 mm 4 m/s 744 mmHg 83%
    08:00 +3°C° 0 mm 4 m/s 744 mmHg 77%
    09:00 +5°C° 0 mm 5 m/s 744 mmHg 71%
    10:00 +6°C° 0 mm 5 m/s 744 mmHg 68%
    11:00 +7°C° 0 mm 5 m/s 744 mmHg 66%
    12:00 +8°C° 0 mm 5 m/s 744 mmHg 63%
    13:00 +8°C° 0 mm 5 m/s 744 mmHg 66%
    14:00 +7°C° 0 mm 5 m/s 743 mmHg 69%
    15:00 +7°C° 0 mm 5 m/s 743 mmHg 71%
    16:00 +7°C° 0.1 mm 4 m/s 743 mmHg 75%
    17:00 +6°C° 0.1 mm 4 m/s 743 mmHg 78%
    18:00 +7°C° 0.1 mm 3 m/s 743 mmHg 81%
    19:00 +5°C° 0.1 mm 3 m/s 743 mmHg 82%
    20:00 +5°C° 0.1 mm 3 m/s 743 mmHg 84%
    21:00 +5°C° 0.1 mm 3 m/s 744 mmHg 85%
    22:00 +5°C° 0.1 mm 3 m/s 744 mmHg 88%
    23:00 +5°C° 0.1 mm 3 m/s 744 mmHg 90%

    28 Setembro, Sábado

    Tempo Temperatura Precipitação Vento Pressão Humidade
    00:00 +5°C° 0.1 mm 2 m/s 744 mmHg 93%
    01:00 +5°C° 0 mm 2 m/s 744 mmHg 94%
    02:00 +5°C° 0 mm 2 m/s 745 mmHg 95%
    03:00 +4°C° 0 mm 2 m/s 745 mmHg 96%
    04:00 +4°C° 0 mm 2 m/s 745 mmHg 94%
    05:00 +4°C° 0 mm 2 m/s 745 mmHg 93%
    06:00 +4°C° 0 mm 2 m/s 745 mmHg 92%
    07:00 +5°C° 0 mm 2 m/s 745 mmHg 89%
    08:00 +6°C° 0 mm 1 m/s 746 mmHg 87%
    09:00 +6°C° 0 mm 1 m/s 746 mmHg 84%
    10:00 +7°C° 0 mm 1 m/s 746 mmHg 81%
    11:00 +7°C° 0 mm 2 m/s 746 mmHg 77%
    12:00 +7°C° 0 mm 2 m/s 747 mmHg 74%
    13:00 +8°C° 0 mm 2 m/s 747 mmHg 73%
    14:00 +8°C° 0 mm 2 m/s 747 mmHg 73%
    15:00 +8°C° 0 mm 3 m/s 746 mmHg 72%
    16:00 +7°C° 0 mm 2 m/s 747 mmHg 74%
    17:00 +7°C° 0 mm 2 m/s 747 mmHg 75%
    18:00 +7°C° 0 mm 2 m/s 747 mmHg 77%
    19:00 +6°C° 0 mm 2 m/s 747 mmHg 77%
    20:00 +6°C° 0 mm 2 m/s 747 mmHg 77%
    21:00 +6°C° 0 mm 2 m/s 747 mmHg 77%
    22:00 +7°C° 0 mm 1 m/s 748 mmHg 77%
    23:00 +7°C° 0 mm 1 m/s 748 mmHg 76%
    Mostrar mais